GW2922 Weather Reports


time (UTC)temp
C
wind
direction
speed
KPH
gust
KPH
rain 1hr
cm
rain 24hr
cm
rain mn
cm
humidity
%
barometer
mb
20260506103507 10 123 0.0 1.6 0.00 0.00 0.00 90 1019.6
20260506103004 10 140 3.2 3.2 0.00 0.00 0.00 90 1019.6
20260506102503 10 130 0.0 0.0 0.00 0.00 0.00 90 1019.6
20260506101959 10 140 0.0 3.2 0.00 0.00 0.00 90 1019.6
20260506101455 10 124 0.0 0.0 0.00 0.00 0.00 91 1019.6
20260506100953 10 113 0.0 1.6 0.00 0.00 0.00 91 1019.6
20260506100451 10 139 1.6 3.2 0.00 0.00 0.00 91 1019.2
20260506095949 10 94 0.0 1.6 0.00 0.00 0.00 92 1019.2
20260506095448 10 166 0.0 1.6 0.00 0.00 0.00 92 1019.6
20260506094943 10 174 0.0 1.6 0.00 0.00 0.00 92 1019.6
20260506094441 10 175 1.6 3.2 0.00 0.00 0.00 92 1019.6
20260506093939 10 182 0.0 1.6 0.00 0.00 0.00 92 1019.6
20260506093437 10 145 0.0 0.0 0.00 0.00 0.00 92 1019.2
20260506092934 10 156 0.0 1.6 0.00 0.00 0.00 93 1019.2
20260506092432 10 147 0.0 3.2 0.00 0.00 0.00 93 1019.6
20260506091928 10 150 0.0 3.2 0.00 0.00 0.00 93 1019.2
20260506091427 10 149 0.0 1.6 0.00 0.00 0.00 93 1019.6
20260506090924 10 150 0.0 3.2 0.00 0.00 0.00 93 1019.2
20260506090421 10 96 0.0 1.6 0.00 0.00 0.00 93 1019.2
20260506085918 10 121 1.6 1.6 0.00 0.00 0.00 93 1019.2
20260506085414 9 113 1.6 1.6 0.00 0.00 0.00 93 1019.6
20260506084910 9 48 0.0 3.2 0.00 0.00 0.00 93 1019.6
20260506084408 9 112 0.0 1.6 0.00 0.00 0.00 93 1019.2
20260506083904 9 114 0.0 0.0 0.00 0.00 0.00 93 1019.2
20260506083402 8 98 0.0 0.0 0.00 0.00 0.00 93 1019.6
20260506082859 8 96 0.0 0.0 0.00 0.00 0.00 93 1019.2
20260506082355 8 85 0.0 0.0 0.00 0.00 0.00 93 1019.2
20260506081851 8 89 0.0 1.6 0.00 0.00 0.00 93 1019.2
20260506081349 8 98 0.0 0.0 0.00 0.00 0.00 93 1019.2
20260506080847 8 93 0.0 0.0 0.00 0.00 0.00 93 1019.2
20260506080344 8 93 0.0 1.6 0.00 0.00 0.00 93 1019.2
20260506073322 8 147 0.0 0.0 0.00 0.00 0.00 92 1018.9
20260506072818 8 107 0.0 0.0 0.00 0.00 0.00 92 1018.5
20260506072316 9 123 0.0 0.0 0.00 0.00 0.00 91 1018.5
20260506071814 9 129 0.0 1.6 0.00 0.00 0.00 91 1018.5
20260506071312 9 75 1.6 3.2 0.00 0.00 0.00 91 1018.9
20260506070808 9 74 0.0 1.6 0.00 0.00 0.00 91 1018.5
20260506070305 9 98 0.0 1.6 0.00 0.00 0.00 91 1018.5
20260506062242 10 50 0.0 4.8 0.00 0.00 0.00 90 1018.5
20260506061738 10 318 1.6 6.4 0.00 0.00 0.00 90 1018.5
20260506061235 10 125 0.0 3.2 0.00 0.00 0.00 90 1018.5
20260506060733 10 317 1.6 1.6 0.00 0.00 0.00 90 1018.5
20260506060230 10 95 3.2 3.2 0.00 0.00 0.00 90 1018.5
20260506051156 10 70 1.6 11.3 0.00 0.00 0.00 89 1018.2
20260506050655 10 64 1.6 1.6 0.00 0.00 0.00 88 1018.2
20260506050152 10 1 1.6 3.2 0.00 0.00 0.00 88 1018.5
20260506044643 10 54 1.6 6.4 0.00 0.00 0.00 88 1018.2
20260506044140 10 45 1.6 3.2 0.00 0.00 0.00 88 1018.2
20260506043637 10 161 1.6 3.2 0.00 0.00 0.00 87 1018.2
20260506043135 10 232 1.6 3.2 0.00 0.00 0.00 87 1018.2
20260506042634 10 107 0.0 1.6 0.00 0.00 0.00 87 1018.2
20260506042131 10 2 0.0 1.6 0.00 0.00 0.00 87 1017.9
20260506041630 10 113 0.0 1.6 0.00 0.00 0.00 87 1017.9
20260506041126 10 127 0.0 1.6 0.00 0.00 0.00 86 1017.9
20260506040624 11 108 0.0 0.0 0.00 0.00 0.00 86 1017.9
20260506040120 11 60 0.0 1.6 0.00 0.00 0.00 86 1017.5
20260506035617 11 138 0.0 3.2 0.00 0.00 0.00 85 1017.5
20260506035114 11 261 0.0 1.6 0.00 0.00 0.00 85 1017.9
20260506034611 11 96 0.0 1.6 0.00 0.00 0.00 85 1017.5
20260506034108 11 122 0.0 1.6 0.00 0.00 0.00 84 1017.5
20260506033605 11 99 0.0 1.6 0.00 0.00 0.00 84 1017.5
20260506033102 11 142 0.0 0.0 0.00 0.00 0.00 83 1017.5
20260506032600 12 156 0.0 1.6 0.00 0.00 0.00 82 1017.2
20260506032056 12 105 0.0 1.6 0.00 0.00 0.00 82 1017.2
20260506031554 12 133 0.0 1.6 0.00 0.00 0.00 82 1017.5
20260506031050 12 56 1.6 1.6 0.00 0.00 0.00 81 1017.5
20260506030549 12 110 0.0 1.6 0.00 0.00 0.00 81 1017.5
20260506030046 12 117 0.0 1.6 0.00 0.00 0.00 80 1017.2
20260506025543 12 109 0.0 1.6 0.00 0.00 0.00 80 1017.5
20260506025038 12 75 1.6 4.8 0.00 0.00 0.00 80 1017.2
20260506024536 12 326 3.2 3.2 0.00 0.00 0.00 79 1017.5
20260506024032 13 98 0.0 1.6 0.00 0.00 0.00 79 1017.2
20260506023528 13 128 0.0 1.6 0.00 0.00 0.00 79 1017.5
20260506023026 13 71 1.6 3.2 0.00 0.00 0.00 78 1017.5
20260506022523 13 149 1.6 1.6 0.00 0.00 0.00 78 1017.5
20260506022021 13 110 0.0 4.8 0.00 0.00 0.00 78 1017.5
20260506021518 13 262 1.6 3.2 0.00 0.00 0.00 78 1017.2
20260506021015 13 7 1.6 4.8 0.00 0.00 0.00 78 1017.5
20260506020513 13 338 1.6 11.3 0.00 0.00 0.00 78 1017.5
20260506020010 13 317 3.2 4.8 0.00 0.00 0.00 77 1017.2
20260506015507 14 258 3.2 4.8 0.00 0.00 0.00 76 1017.2
20260506015004 14 48 1.6 6.4 0.00 0.00 0.00 75 1017.5
20260506014502 15 29 1.6 6.4 0.00 0.00 0.00 74 1017.5
20260506013957 15 69 1.6 4.8 0.00 0.00 0.00 74 1017.5
20260506013455 15 52 3.2 6.4 0.00 0.00 0.00 74 1017.5
20260506012951 15 83 1.6 11.3 0.00 0.00 0.00 74 1017.5
20260506012448 15 301 6.4 6.4 0.00 0.00 0.00 74 1017.5
20260506011945 15 102 1.6 4.8 0.00 0.00 0.00 74 1017.5
20260506011442 15 210 4.8 4.8 0.00 0.00 0.00 73 1017.5
20260506010939 15 110 1.6 9.7 0.00 0.00 0.00 74 1017.5
20260506010438 15 128 3.2 6.4 0.00 0.00 0.00 73 1017.5
20260506005933 15 354 3.2 4.8 0.00 0.00 0.00 73 1017.2
20260506005432 15 9 3.2 9.7 0.00 0.00 0.00 72 1017.5
20260506004926 15 297 6.4 12.9 0.00 0.00 0.00 73 1017.2
20260506004425 16 121 0.0 9.7 0.00 0.00 0.00 71 1017.5
20260506003920 16 321 3.2 6.4 0.00 0.00 0.00 70 1017.5
20260506003417 16 92 0.0 6.4 0.00 0.00 0.00 71 1017.5
20260506002914 15 73 1.6 4.8 0.00 0.00 0.00 71 1017.5
20260506002410 16 84 1.6 6.4 0.00 0.00 0.00 71 1017.5
20260506001905 16 27 3.2 3.2 0.00 0.00 0.00 68 1017.5
20260506001403 16 110 0.0 4.8 0.00 0.00 0.00 70 1017.5
20260506000900 16 97 1.6 3.2 0.00 0.00 0.00 70 1017.5
20260506000357 17 98 3.2 3.2 0.00 0.00 0.00 68 1017.5
20260505235854 17 84 1.6 3.2 0.00 0.00 0.00 69 1017.5
20260505235352 17 356 8.0 9.7 0.00 0.00 0.00 68 1017.5
20260505234848 17 351 3.2 6.4 0.00 0.00 0.00 67 1017.5
20260505234346 16 123 0.0 3.2 0.00 0.00 0.00 72 1017.5
20260505233843 16 213 3.2 4.8 0.00 0.00 0.00 72 1017.5
20260505233341 17 113 1.6 9.7 0.00 0.00 0.00 71 1017.9
20260505232838 17 311 1.6 3.2 0.00 0.00 0.00 70 1017.5
20260505232336 16 34 3.2 4.8 0.00 0.00 0.00 71 1017.9
20260505231832 17 289 4.8 6.4 0.00 0.00 0.00 71 1017.9
20260505231330 16 320 4.8 6.4 0.00 0.00 0.00 72 1017.5
20260505230828 16 71 3.2 4.8 0.00 0.00 0.00 71 1017.5
20260505230325 16 44 1.6 6.4 0.00 0.00 0.00 74 1017.5
20260505225821 17 20 3.2 6.4 0.00 0.00 0.00 71 1017.9
20260505225319 16 155 0.0 3.2 0.00 0.00 0.00 73 1017.9
20260505224813 16 68 1.6 3.2 0.00 0.00 0.00 74 1017.9
20260505224312 16 86 0.0 3.2 0.00 0.00 0.00 74 1017.9
20260505223808 15 58 3.2 4.8 0.00 0.00 0.00 75 1017.9
20260505223306 15 57 1.6 6.4 0.00 0.00 0.00 75 1017.9
20260505222801 17 82 1.6 1.6 0.00 0.00 0.00 69 1017.9
20260505222257 17 126 3.2 4.8 0.00 0.00 0.00 69 1017.9
20260505221755 17 106 1.6 3.2 0.00 0.00 0.00 71 1017.9
20260505221251 16 296 1.6 3.2 0.00 0.00 0.00 73 1017.9
20260505220748 15 358 3.2 4.8 0.00 0.00 0.00 74 1017.9
20260505220245 16 94 3.2 4.8 0.00 0.00 0.00 73 1017.9
20260505215744 16 105 0.0 1.6 0.00 0.00 0.00 74 1018.2
20260505215241 16 104 1.6 1.6 0.00 0.00 0.00 73 1018.2
20260505214739 16 83 1.6 1.6 0.00 0.00 0.00 72 1018.2
20260505214236 16 140 0.0 1.6 0.00 0.00 0.00 74 1018.2
20260505213733 16 232 4.8 4.8 0.00 0.00 0.00 72 1018.2
20260505213230 16 98 0.0 3.2 0.00 0.00 0.00 73 1018.2
20260505212726 15 185 0.0 1.6 0.00 0.00 0.00 75 1018.2
20260505212224 15 61 1.6 3.2 0.00 0.00 0.00 76 1018.2
20260505211721 15 108 0.0 1.6 0.00 0.00 0.00 78 1018.2
20260505211218 14 103 1.6 4.8 0.00 0.00 0.00 78 1018.2
20260505210714 15 72 3.2 4.8 0.00 0.00 0.00 77 1018.2
20260505210211 15 53 3.2 4.8 0.00 0.00 0.00 78 1018.2
20260505205709 14 56 1.6 3.2 0.00 0.00 0.00 79 1018.2
20260505205207 13 85 3.2 3.2 0.00 0.00 0.00 81 1018.2
20260505204703 13 59 1.6 3.2 0.00 0.00 0.00 79 1018.2
20260505204201 14 2 1.6 1.6 0.00 0.00 0.00 79 1018.5
20260505203658 14 98 0.0 0.0 0.00 0.00 0.00 80 1018.2
20260505203154 13 69 1.6 3.2 0.00 0.00 0.00 81 1018.2
20260505202650 13 94 0.0 1.6 0.00 0.00 0.00 81 1018.2
20260505202147 13 86 1.6 3.2 0.00 0.00 0.00 81 1018.2
20260505201643 13 290 1.6 3.2 0.00 0.00 0.00 82 1018.2
20260505201141 13 317 1.6 4.8 0.00 0.00 0.00 81 1018.2
20260505200639 13 62 1.6 1.6 0.00 0.00 0.00 83 1017.9
20260505200136 12 82 1.6 3.2 0.00 0.00 0.00 84 1018.2
20260505195632 12 10 3.2 4.8 0.00 0.00 0.00 84 1018.2
20260505195129 12 67 1.6 4.8 0.00 0.00 0.00 84 1018.2
20260505194626 12 83 3.2 3.2 0.00 0.00 0.00 85 1018.2
20260505194122 12 63 3.2 3.2 0.00 0.00 0.00 86 1018.2
20260505193619 12 9 3.2 4.8 0.00 0.00 0.00 86 1018.2
20260505193116 12 77 1.6 3.2 0.00 0.00 0.00 86 1018.2
20260505192615 12 35 1.6 4.8 0.00 0.00 0.00 86 1018.2
20260505192112 12 14 3.2 3.2 0.00 0.00 0.00 87 1018.2
20260505191610 12 17 3.2 4.8 0.00 0.00 0.00 87 1018.2
20260505191107 12 27 3.2 4.8 0.00 0.00 0.00 87 1018.2
20260505190603 12 31 1.6 3.2 0.00 0.00 0.00 88 1018.2
20260505190058 12 43 0.0 3.2 0.00 0.00 0.00 88 1018.2
20260505185555 12 54 1.6 6.4 0.00 0.00 0.00 87 1018.2
20260505185051 12 38 1.6 3.2 0.00 0.00 0.00 88 1018.2
20260505184548 12 152 0.0 3.2 0.00 0.00 0.00 88 1018.2
20260505184045 12 67 1.6 3.2 0.00 0.00 0.00 88 1018.2
20260505183542 12 104 1.6 3.2 0.00 0.00 0.00 87 1018.2
20260505183039 12 93 1.6 1.6 0.00 0.00 0.00 87 1017.9
20260505182535 12 101 1.6 4.8 0.00 0.00 0.00 87 1018.2
20260505182032 12 97 1.6 4.8 0.00 0.00 0.00 87 1017.9
20260505181529 12 94 1.6 3.2 0.00 0.00 0.00 87 1017.9
20260505181026 12 27 1.6 3.2 0.00 0.00 0.00 87 1018.2
20260505180522 12 97 1.6 1.6 0.00 0.00 0.00 87 1017.9
20260505180020 12 85 1.6 3.2 0.00 0.00 0.00 86 1017.9
20260505175515 12 358 0.0 3.2 0.00 0.00 0.00 85 1017.9
20260505175012 12 10 1.6 3.2 0.00 0.00 0.00 84 1017.9
20260505174509 12 103 3.2 4.8 0.00 0.00 0.00 84 1017.5
20260505174005 12 156 1.6 1.6 0.00 0.00 0.00 85 1017.9
20260505173501 12 101 3.2 6.4 0.00 0.00 0.00 86 1017.9
20260505172958 12 105 6.4 9.7 0.00 0.00 0.00 86 1017.9
20260505172456 12 113 1.6 4.8 0.00 0.00 0.00 86 1017.5
20260505171951 12 194 3.2 6.4 0.00 0.00 0.00 86 1017.5
20260505171447 12 175 4.8 11.3 0.00 0.00 0.00 86 1017.9
20260505170944 12 169 4.8 9.7 0.00 0.00 0.00 87 1017.9
20260505170441 12 122 3.2 9.7 0.00 0.00 0.00 87 1017.5
20260505165936 12 166 8.0 9.7 0.00 0.00 0.00 86 1017.5
20260505165432 12 154 1.6 3.2 0.00 0.00 0.00 87 1017.9
20260505164928 12 159 6.4 9.7 0.00 0.00 0.00 87 1017.9
20260505164425 12 167 1.6 3.2 0.00 0.00 0.00 88 1017.5
20260505163923 12 119 3.2 6.4 0.00 0.00 0.00 88 1017.5
20260505163422 12 160 3.2 6.4 0.00 0.00 0.00 88 1017.5
20260505162920 12 117 1.6 9.7 0.00 0.00 0.00 88 1017.5
20260505162415 12 126 4.8 4.8 0.00 0.00 0.00 88 1017.5
20260505161912 12 122 1.6 3.2 0.00 0.00 0.00 88 1017.5
20260505161409 12 152 3.2 6.4 0.00 0.00 0.00 89 1017.5
20260505160907 12 162 3.2 4.8 0.00 0.00 0.00 89 1017.5
20260505160405 12 151 3.2 6.4 0.00 0.00 0.00 89 1017.5
20260505153343 11 119 0.0 1.6 0.00 0.00 0.00 91 1017.2
20260505152840 11 110 0.0 1.6 0.00 0.00 0.00 91 1017.5
20260505152337 11 108 0.0 1.6 0.00 0.00 0.00 91 1017.2
20260505151832 11 106 0.0 0.0 0.00 0.00 0.00 91 1017.2
20260505151328 11 108 0.0 1.6 0.00 0.00 0.00 91 1017.2
20260505150825 11 95 0.0 1.6 0.00 0.00 0.00 91 1017.2
20260505150322 11 108 0.0 0.0 0.00 0.00 0.00 92 1017.2
20260505140247 11 115 0.0 0.0 0.00 0.00 0.00 92 1016.9
20260505130211 10 112 0.0 0.0 0.00 0.00 0.00 93 1015.8
20260505124701 10 97 0.0 0.0 0.00 0.00 0.00 93 1015.8
20260505124157 10 112 0.0 0.0 0.00 0.00 0.00 93 1015.8
20260505123653 10 112 0.0 0.0 0.00 0.00 0.00 93 1015.8
20260505123150 10 105 0.0 1.6 0.00 0.00 0.00 93 1015.8
20260505122647 10 89 0.0 0.0 0.00 0.00 0.00 93 1015.8
20260505122144 10 114 0.0 0.0 0.00 0.00 0.00 93 1015.8
20260505121641 10 81 1.6 1.6 0.00 0.00 0.00 94 1015.8
20260505121137 10 102 0.0 0.0 0.00 0.00 0.00 94 1015.5
20260505120633 10 152 1.6 3.2 0.00 0.00 0.00 94 1015.8
20260505120129 10 106 0.0 0.0 0.00 0.00 0.00 94 1015.8
20260505115624 10 112 0.0 0.0 0.00 0.00 0.00 94 1015.8
20260505115122 10 127 0.0 0.0 0.00 0.00 0.00 94 1015.5
20260505114618 10 115 0.0 0.0 0.00 0.00 0.00 94 1015.5
20260505114115 10 120 0.0 3.2 0.00 0.00 0.00 94 1015.5
20260505113611 10 175 1.6 3.2 0.00 0.00 0.00 94 1015.5
20260505113108 10 119 0.0 3.2 0.00 0.00 0.00 94 1015.5
20260505112604 10 134 4.8 6.4 0.00 0.00 0.00 94 1015.5
20260505112103 10 130 0.0 6.4 0.00 0.00 0.00 94 1015.2
20260505111601 10 142 3.2 4.8 0.00 0.00 0.00 94 1015.2
20260505111057 10 348 0.0 3.2 0.00 0.00 0.00 94 1015.5
20260505110554 10 348 0.0 0.0 0.00 0.00 0.00 94 1015.2